Total_Precipitation_Accumulation
0.78 0.80 0.84 0.91 0.94 0.93 0.92 0.92 0.98 1.08 1.19 1.41 1.72 2.23 2.50 2.58 2.44 2.37 2.27 2.05 1.81 1.79 1.99 2.02 2.01 2.01 2.02 2.00 1.92 2.08 1.99 1.71 1.63 1.87 1.86 1.68 1.49 1.39 1.37 1.42 1.65 1.75 1.66
0.79 0.78 0.76 0.78 0.80 0.78 0.81 0.96 1.02 1.08 1.20 1.45 1.76 2.13 2.56 2.62 2.55 2.43 2.33 2.22 2.08 2.03 2.07 2.30 2.42 2.39 2.59 2.61 2.37 2.49 2.51 2.10 1.85 2.17 2.53 2.23 1.98 1.53 1.41 1.53 1.59 1.68 1.77
0.66 0.70 0.75 0.77 0.74 0.70 0.66 0.78 0.95 1.14 1.43 1.72 2.02 2.20 2.50 2.60 2.60 2.46 2.39 2.40 2.33 2.20 2.27 2.38 2.54 2.55 2.64 2.86 2.97 2.87 2.94 2.73 2.29 2.15 2.53 2.48 2.29 2.05 1.67 1.56 1.64 1.78 1.83
0.56 0.61 0.70 0.75 0.69 0.63 0.60 0.68 0.83 1.12 1.52 1.87 2.10 2.36 2.72 2.82 2.67 2.58 2.50 2.48 2.47 2.46 2.57 2.58 2.65 2.67 2.68 2.79 2.96 2.95 3.12 3.24 2.82 2.44 2.20 2.04 2.06 2.23 2.05 1.76 1.70 1.84 1.83
0.45 0.51 0.55 0.59 0.61 0.67 0.69 0.75 0.94 1.21 1.53 1.78 2.06 2.40 2.60 2.70 2.76 2.65 2.59 2.56 2.58 2.59 2.65 2.72 2.85 2.83 2.80 2.74 2.95 3.04 3.15 3.12 3.06 2.91 2.73 2.57 2.32 1.97 2.12 2.13 1.93 1.79 1.68
0.41 0.49 0.56 0.61 0.67 0.72 0.81 0.93 1.10 1.29 1.54 1.78 2.06 2.22 2.40 2.54 2.59 2.63 2.56 2.51 2.55 2.65 2.53 2.46 2.65 2.71 2.73 2.69 2.85 2.98 3.11 3.11 3.16 3.09 2.80 2.82 2.73 2.35 2.31 2.16 1.98 1.99 1.79
0.51 0.61 0.71 0.84 0.94 0.96 1.01 1.12 1.25 1.45 1.59 1.71 1.87 1.97 2.08 2.19 2.17 2.29 2.34 2.46 2.45 2.47 2.48 2.40 2.42 2.47 2.40 2.39 2.51 2.56 2.64 2.78 2.97 2.86 2.62 2.58 2.43 2.42 2.53 2.44 2.20 1.99 1.74
0.67 0.83 0.99 1.16 1.23 1.22 1.27 1.35 1.42 1.49 1.53 1.58 1.67 1.80 1.88 1.93 1.91 1.87 1.87 2.02 2.17 2.19 2.24 2.27 2.24 2.29 2.31 2.26 2.36 2.38 2.38 2.43 2.48 2.40 2.50 2.57 2.40 2.33 2.34 2.44 2.65 2.42 2.10
0.94 1.09 1.26 1.37 1.33 1.32 1.34 1.40 1.46 1.48 1.48 1.52 1.57 1.55 1.60 1.65 1.65 1.61 1.68 1.71 1.76 1.76 1.81 1.87 2.01 2.14 2.20 2.21 2.32 2.39 2.36 2.29 2.27 2.35 2.43 2.37 2.30 2.28 2.21 2.24 2.45 2.62 2.44
1.30 1.47 1.65 1.63 1.54 1.55 1.62 1.54 1.46 1.47 1.52 1.55 1.56 1.49 1.52 1.55 1.52 1.41 1.45 1.42 1.38 1.39 1.44 1.53 1.73 2.04 2.18 2.21 2.27 2.32 2.34 2.34 2.27 2.35 2.47 2.51 2.47 2.49 2.43 2.33 2.32 2.31 2.37
1.67 1.80 1.91 1.89 1.72 1.61 1.59 1.53 1.42 1.38 1.38 1.44 1.54 1.51 1.48 1.49 1.49 1.39 1.31 1.28 1.26 1.27 1.35 1.41 1.55 1.72 1.95 2.18 2.33 2.33 2.27 2.25 2.21 2.14 2.26 2.41 2.47 2.59 2.63 2.65 2.55 2.43 2.39
1.60 1.66 1.68 1.75 1.66 1.57 1.48 1.45 1.37 1.23 1.24 1.28 1.38 1.50 1.43 1.41 1.42 1.34 1.37 1.27 1.18 1.17 1.20 1.36 1.56 1.66 1.74 1.84 1.94 2.00 2.04 2.06 2.08 2.04 2.01 2.08 2.17 2.29 2.47 2.58 2.55 2.56 2.46
1.32 1.45 1.54 1.47 1.48 1.48 1.43 1.52 1.55 1.42 1.42 1.42 1.52 1.55 1.47 1.45 1.44 1.30 1.36 1.28 1.21 1.19 1.19 1.26 1.42 1.51 1.58 1.63 1.69 1.82 1.92 1.93 1.87 1.87 1.77 1.75 1.86 1.99 2.14 2.23 2.34 2.49 2.53
1.17 1.23 1.32 1.29 1.39 1.48 1.47 1.57 1.61 1.58 1.58 1.65 1.69 1.59 1.53 1.49 1.46 1.33 1.26 1.24 1.22 1.21 1.24 1.35 1.41 1.45 1.46 1.58 1.63 1.71 1.71 1.66 1.58 1.58 1.52 1.51 1.54 1.65 1.82 1.95 2.15 2.37 2.50
0.99 0.96 0.98 1.02 1.14 1.21 1.22 1.30 1.37 1.42 1.52 1.59 1.59 1.58 1.46 1.34 1.32 1.36 1.18 1.17 1.23 1.23 1.29 1.35 1.43 1.47 1.48 1.53 1.61 1.55 1.47 1.45 1.44 1.40 1.24 1.20 1.26 1.31 1.43 1.43 1.70 1.99 2.23
0.78 0.77 0.76 0.78 0.85 0.80 0.83 0.90 1.05 1.24 1.42 1.46 1.42 1.37 1.29 1.29 1.26 1.23 1.15 1.10 1.12 1.16 1.19 1.22 1.38 1.49 1.39 1.58 1.56 1.37 1.24 1.22 1.28 1.26 1.14 1.07 1.08 1.02 1.03 1.07 1.31 1.64 1.81
0.70 0.71 0.71 0.69 0.72 0.70 0.73 0.80 0.89 1.06 1.20 1.25 1.20 1.10 1.06 1.06 1.08 1.07 1.10 1.10 1.10 1.12 1.14 1.10 1.21 1.29 1.39 1.43 1.26 1.25 1.17 1.17 1.18 1.20 1.22 1.11 1.02 1.11 0.99 0.96 1.08 1.19 1.32
0.62 0.66 0.67 0.65 0.68 0.74 0.78 0.85 0.92 0.94 1.03 1.12 1.11 1.05 0.98 0.93 0.93 0.94 1.00 1.07 1.04 1.02 1.05 1.05 1.02 1.07 1.22 1.23 1.09 1.16 1.08 1.17 1.22 1.24 1.33 1.33 1.23 1.20 1.28 1.19 1.19 1.16 1.12
0.45 0.45 0.47 0.49 0.56 0.62 0.67 0.67 0.70 0.72 0.78 0.85 0.90 0.87 0.79 0.82 0.89 0.88 1.00 1.03 0.95 0.95 0.93 0.96 0.97 1.01 1.07 1.08 1.00 1.04 1.07 1.21 1.21 1.15 1.28 1.33 1.24 1.35 1.47 1.51 1.52 1.44 1.26
0.31 0.29 0.32 0.34 0.40 0.47 0.60 0.63 0.59 0.53 0.55 0.62 0.64 0.70 0.69 0.71 0.79 0.88 0.97 1.01 0.95 0.96 0.92 0.87 0.84 0.84 0.87 0.98 0.88 0.99 1.07 1.16 1.18 1.18 1.21 1.40 1.31 1.31 1.30 1.35 1.46 1.43 1.26
0.27 0.26 0.27 0.31 0.36 0.43 0.51 0.54 0.57 0.52 0.52 0.55 0.56 0.58 0.61 0.66 0.78 0.86 0.81 0.81 0.84 0.89 0.88 0.90 0.84 0.80 0.85 0.96 0.97 1.03 1.05 1.12 1.17 1.25 1.27 1.25 1.38 1.24 1.20 1.18 1.15 1.26 1.28
0.23 0.24 0.25 0.30 0.38 0.40 0.40 0.43 0.45 0.44 0.46 0.48 0.52 0.49 0.48 0.50 0.58 0.67 0.74 0.74 0.74 0.78 0.75 0.74 0.73 0.73 0.80 0.87 0.86 0.89 0.95 1.06 1.04 1.08 1.08 1.06 1.20 1.06 1.00 0.94 0.98 1.11 1.18
0.20 0.23 0.28 0.34 0.39 0.41 0.39 0.37 0.38 0.40 0.44 0.48 0.51 0.48 0.47 0.47 0.50 0.58 0.69 0.76 0.79 0.78 0.74 0.67 0.64 0.66 0.70 0.76 0.79 0.76 0.76 0.81 0.83 0.81 0.94 0.98 0.99 0.93 0.85 0.91 0.96 0.99 1.02
0.19 0.23 0.29 0.33 0.38 0.39 0.39 0.37 0.36 0.36 0.39 0.43 0.49 0.49 0.50 0.51 0.51 0.54 0.61 0.75 0.81 0.75 0.68 0.67 0.66 0.69 0.70 0.69 0.68 0.70 0.69 0.68 0.73 0.73 0.81 0.85 0.84 0.84 0.84 0.88 0.93 0.96 1.00
0.19 0.22 0.27 0.32 0.36 0.40 0.39 0.39 0.38 0.35 0.34 0.38 0.42 0.42 0.47 0.52 0.52 0.47 0.49 0.60 0.67 0.73 0.77 0.76 0.76 0.78 0.77 0.71 0.65 0.62 0.66 0.70 0.76 0.83 0.78 0.76 0.77 0.79 0.85 0.88 0.89 0.94 1.00
0.23 0.25 0.26 0.30 0.31 0.36 0.41 0.43 0.46 0.44 0.40 0.39 0.41 0.43 0.46 0.51 0.52 0.48 0.48 0.52 0.55 0.64 0.68 0.69 0.71 0.65 0.62 0.62 0.58 0.56 0.60 0.67 0.74 0.85 0.90 0.92 0.97 1.01 1.01 0.98 0.89 0.86 0.89